Location: Echo Hill Outdoor School
(39.3621°N, 76.1137°W)
Time: 11:18:38
(UTC-05:00)

Tiangong 1 - Visible Passes

Search period start: 24 February 2018 00:00
Search period end: 06 March 2018 00:00
Orbit: 245 x 266 km, 42.8° (Epoch: 24 February)

Date Brightness Start Highest point End Pass type
(mag) Time Alt. Az. Time Alt. Az. Time Alt. Az.
28 Feb 2.5 19:05:22 10° SSW 19:06:23 16° S 19:06:23 16° S visible
01 Mar 1.4 18:56:41 10° SSW 18:58:41 27° SSE 18:58:56 26° SE visible
02 Mar 0.8 18:47:56 10° SW 18:50:06 42° SSE 18:51:07 24° E visible
03 Mar 0.2 18:39:01 10° WSW 18:41:16 69° SSE 18:42:56 16° ENE visible
04 Mar 0.2 18:29:55 10° WSW 18:32:10 79° NNW 18:34:24 10° ENE visible
05 Mar 3.9 19:54:40 10° WNW 19:54:58 12° WNW 19:54:58 12° WNW visible
